BRISAT

Last updated on Oct. 31, 2020, 5:53 a.m. UTC

1 41591U 16039A   20304.88813542 -.00000190  00000-0  00000-0 0  9998
2 41591   0.0171 273.0182 0002303 300.4864 296.4139  1.00272697 16013
UTC
Height (km)
Latitude
Longitude
Inclination
Orbital Period
UTC large
Height (km)
Speed (km/s)
/
Latitude / Longitude
Inclination (degrees)
Orbital Period (minutes)
Azimuth
Elevation
Range (km)
Doppler Factor
iOS Compass Heading
iOS Angle

Next 30 passes for location: Hong Kong

Rise time Rise Azimuth (degrees) Set time Set Azimuth (degrees) Duration Max altitude (degrees)

No matching passes for this satellites